Location: Exeidioux
(45.6312°N, 1.6819°E)
Time: 18:22:44
(UTC+00:00)

ATLAS CENTAUR R/B - Pass Details

Date: 03 March 2021
Orbit: 475 x 670 km, 64.7° (Epoch: 30 March)

Event Time Altitude Azimuth Distance (km) Brightness Sun altitude
Rises 18:17:51 0° 187° (S) 2,524 4.8 -6.9°
Reaches altitude 10° 18:20:12 10° 174° (S) 1,640 3.7 -7.3°
Maximum altitude 18:23:15 26° 116° (ESE) 974 2.1 -7.8°
Drops below altitude 10° 18:26:20 10° 59° (ENE) 1,654 3.2 -8.4°
Enters shadow 18:27:02 - 54° (NE) 1,905 3.6 -8.5°
